Location: Newark
(42.9858°N, 0.6717°E)
Time: 08:40:14
(UTC+00:00)

S-56A Canister/Altair - Pass Details

Date: 29 November 2019
Orbit: 633 x 2499 km, 38.9° (Epoch: 10 December)

Event Time Altitude Azimuth Distance (km) Brightness Sun altitude
Rises 15:58:45 0° 264° (W) 5,948 13.4 3.2°
Reaches altitude 10° 16:02:58 10° 262° (W) 4,759 12.9 2.6°
Maximum altitude 16:15:38 71° 183° (S) 1,759 9.6 0.6°
Drops below altitude 10° 16:24:01 10° 101° (E) 3,250 10.3 -0.7°
Sets 16:26:23 0° 99° (E) 4,007 10.7 -1.1°
